EN

Hourly Weather Aluferevo

Today, 19 January, Tuesday

Time Temperature Precipitation Wind Pressure Humidity
00:00 -16°C° 0 mm 1 mps 740 mmHg 96%
01:00 -16°C° 0 mm 1 mps 740 mmHg 96%
02:00 -16°C° 0 mm 1 mps 740 mmHg 97%
03:00 -16°C° 0 mm 1 mps 739 mmHg 97%
04:00 -16°C° 0 mm 0 mps 739 mmHg 97%
05:00 -16°C° 0 mm 0 mps 739 mmHg 97%
06:00 -16°C° 0 mm 0 mps 739 mmHg 97%
07:00 -16°C° 0 mm 1 mps 739 mmHg 96%
08:00 -16°C° 0 mm 1 mps 739 mmHg 96%
09:00 -15°C° 0 mm 1 mps 739 mmHg 95%
10:00 -13°C° 0 mm 0 mps 739 mmHg 94%
11:00 -12°C° 0 mm 0 mps 740 mmHg 93%
12:00 -12°C° 0 mm 1 mps 739 mmHg 94%
13:00 -12°C° 0 mm 1 mps 739 mmHg 95%
14:00 -12°C° 0 mm 1 mps 739 mmHg 96%
15:00 -13°C° 0 mm 1 mps 739 mmHg 96%
16:00 -14°C° 0 mm 1 mps 739 mmHg 96%
17:00 -15°C° 0 mm 1 mps 739 mmHg 96%
18:00 -15°C° 0 mm 1 mps 739 mmHg 96%
19:00 -16°C° 0 mm 1 mps 739 mmHg 96%
20:00 -16°C° 0 mm 1 mps 739 mmHg 96%
21:00 -16°C° 0 mm 1 mps 739 mmHg 96%
22:00 -16°C° 0 mm 1 mps 739 mmHg 96%
23:00 -16°C° 0 mm 1 mps 739 mmHg 96%

Tomorrow, 20 January, Wednesday

Time Temperature Precipitation Wind Pressure Humidity
00:00 -16°C° 0 mm 1 mps 739 mmHg 96%
01:00 -16°C° 0 mm 1 mps 739 mmHg 96%
02:00 -16°C° 0 mm 1 mps 740 mmHg 96%
03:00 -16°C° 0 mm 1 mps 739 mmHg 96%
04:00 -16°C° 0 mm 1 mps 739 mmHg 96%
05:00 -16°C° 0 mm 1 mps 739 mmHg 96%
06:00 -18°C° 0 mm 2 mps 739 mmHg 96%
07:00 -18°C° 0 mm 2 mps 740 mmHg 96%
08:00 -18°C° 0 mm 2 mps 740 mmHg 96%
09:00 -17°C° 0 mm 2 mps 740 mmHg 95%
10:00 -16°C° 0 mm 2 mps 740 mmHg 94%
11:00 -14°C° 0 mm 2 mps 740 mmHg 93%
12:00 -14°C° 0 mm 2 mps 740 mmHg 93%
13:00 -14°C° 0 mm 2 mps 740 mmHg 94%
14:00 -11°C° 0 mm 1 mps 740 mmHg 94%
15:00 -14°C° 0 mm 2 mps 740 mmHg 94%
16:00 -16°C° 0 mm 2 mps 740 mmHg 95%
17:00 -17°C° 0 mm 2 mps 740 mmHg 95%
18:00 -17°C° 0 mm 2 mps 740 mmHg 95%
19:00 -18°C° 0 mm 2 mps 739 mmHg 95%
20:00 -18°C° 0 mm 2 mps 739 mmHg 95%
21:00 -18°C° 0 mm 2 mps 739 mmHg 93%
22:00 -18°C° 0 mm 3 mps 738 mmHg 92%
23:00 -18°C° 0 mm 3 mps 738 mmHg 90%

Day after tomorrow, 21 January, Thursday

Time Temperature Precipitation Wind Pressure Humidity
00:00 -18°C° 0 mm 3 mps 737 mmHg 90%
01:00 -18°C° 0 mm 4 mps 737 mmHg 89%
02:00 -18°C° 0 mm 4 mps 736 mmHg 89%
03:00 -17°C° 0.4 mm 4 mps 735 mmHg 90%
04:00 -16°C° 0.4 mm 4 mps 734 mmHg 92%
05:00 -15°C° 0.4 mm 5 mps 734 mmHg 93%
06:00 -14°C° 0.6 mm 5 mps 733 mmHg 93%
07:00 -14°C° 0.6 mm 4 mps 733 mmHg 94%
08:00 -12°C° 0.6 mm 4 mps 732 mmHg 94%
09:00 -12°C° 0.3 mm 4 mps 732 mmHg 93%
10:00 -11°C° 0.3 mm 4 mps 731 mmHg 93%
11:00 -10°C° 0.3 mm 4 mps 731 mmHg 92%
12:00 -10°C° 0.2 mm 4 mps 731 mmHg 93%
13:00 -9°C° 0.2 mm 4 mps 731 mmHg 94%
14:00 -9°C° 0.2 mm 4 mps 730 mmHg 94%
15:00 -8°C° 0.2 mm 4 mps 730 mmHg 94%
16:00 -6°C° 0.2 mm 3 mps 730 mmHg 94%
17:00 -5°C° 0.2 mm 3 mps 730 mmHg 94%
18:00 -4°C° 0.2 mm 3 mps 730 mmHg 95%
19:00 -2°C° 0.2 mm 3 mps 730 mmHg 96%
20:00 0°C° 0.2 mm 3 mps 730 mmHg 97%
21:00 0°C° 0.1 mm 3 mps 730 mmHg 97%
22:00 0°C° 0.1 mm 3 mps 730 mmHg 98%
23:00 0°C° 0.1 mm 3 mps 730 mmHg 98%

22 January, Friday

Time Temperature Precipitation Wind Pressure Humidity
00:00 0°C° 0.1 mm 3 mps 730 mmHg 98%
01:00 0°C° 0.1 mm 3 mps 730 mmHg 98%
02:00 0°C° 0.1 mm 3 mps 731 mmHg 98%
03:00 0°C° 0.1 mm 3 mps 731 mmHg 98%
04:00 -1°C° 0.1 mm 2 mps 731 mmHg 98%
05:00 -1°C° 0.1 mm 2 mps 731 mmHg 98%
06:00 -1°C° 0 mm 2 mps 731 mmHg 97%
07:00 -1°C° 0 mm 2 mps 731 mmHg 97%
08:00 -1°C° 0 mm 2 mps 731 mmHg 97%
09:00 -1°C° 0 mm 3 mps 731 mmHg 97%
10:00 -1°C° 0 mm 3 mps 731 mmHg 97%
11:00 -1°C° 0 mm 3 mps 731 mmHg 97%
12:00 -1°C° 0 mm 3 mps 731 mmHg 97%
13:00 -1°C° 0 mm 3 mps 731 mmHg 97%
14:00 -1°C° 0 mm 3 mps 731 mmHg 98%
15:00 -1°C° 0 mm 3 mps 731 mmHg 97%
16:00 -1°C° 0 mm 3 mps 731 mmHg 97%
17:00 -1°C° 0 mm 3 mps 730 mmHg 97%
18:00 -1°C° 0 mm 3 mps 730 mmHg 96%
19:00 -1°C° 0 mm 3 mps 730 mmHg 96%
20:00 -2°C° 0 mm 3 mps 730 mmHg 95%
21:00 -2°C° 0 mm 3 mps 730 mmHg 95%
22:00 -2°C° 0 mm 3 mps 730 mmHg 95%
23:00 -2°C° 0 mm 3 mps 730 mmHg 95%

23 January, Saturday

Time Temperature Precipitation Wind Pressure Humidity
00:00 -1°C° 0 mm 3 mps 730 mmHg 95%
01:00 -1°C° 0 mm 3 mps 730 mmHg 95%
02:00 -1°C° 0 mm 3 mps 730 mmHg 95%
03:00 -1°C° 0 mm 3 mps 730 mmHg 96%
04:00 -1°C° 0 mm 3 mps 730 mmHg 97%
05:00 -1°C° 0 mm 3 mps 729 mmHg 97%
06:00 -1°C° 0 mm 3 mps 729 mmHg 97%
07:00 -1°C° 0 mm 3 mps 729 mmHg 97%
08:00 -1°C° 0 mm 3 mps 729 mmHg 98%
09:00 0°C° 0.1 mm 3 mps 730 mmHg 98%
10:00 0°C° 0.1 mm 3 mps 730 mmHg 99%
11:00 0°C° 0.1 mm 3 mps 730 mmHg 99%
12:00 0°C° 0 mm 3 mps 730 mmHg 99%
13:00 0°C° 0 mm 3 mps 730 mmHg 99%
14:00 0°C° 0 mm 3 mps 731 mmHg 99%
15:00 0°C° 0 mm 3 mps 731 mmHg 99%
16:00 +1°C° 0 mm 2 mps 731 mmHg 99%
17:00 +1°C° 0 mm 2 mps 732 mmHg 98%
18:00 +1°C° 0 mm 2 mps 732 mmHg 98%
19:00 -1°C° 0 mm 2 mps 732 mmHg 98%
20:00 -1°C° 0 mm 2 mps 732 mmHg 98%
21:00 -1°C° 0 mm 2 mps 732 mmHg 98%
22:00 -1°C° 0 mm 2 mps 732 mmHg 98%
23:00 -1°C° 0 mm 2 mps 732 mmHg 98%

24 January, Sunday

Time Temperature Precipitation Wind Pressure Humidity
00:00 -1°C° 0.4 mm 2 mps 731 mmHg 98%
01:00 -1°C° 0.4 mm 2 mps 731 mmHg 98%
02:00 -1°C° 0.4 mm 3 mps 731 mmHg 98%
03:00 0°C° 0.5 mm 3 mps 730 mmHg 98%
04:00 +1°C° 0.5 mm 2 mps 730 mmHg 98%
05:00 +1°C° 0.5 mm 2 mps 729 mmHg 98%
06:00 +1°C° 0.2 mm 2 mps 729 mmHg 98%
07:00 0°C° 0.2 mm 3 mps 729 mmHg 98%
08:00 0°C° 0.2 mm 3 mps 729 mmHg 98%
09:00 0°C° 0 mm 3 mps 729 mmHg 99%
10:00 0°C° 0 mm 3 mps 729 mmHg 99%
11:00 0°C° 0 mm 3 mps 729 mmHg 99%
12:00 0°C° 0 mm 3 mps 729 mmHg 99%
13:00 0°C° 0 mm 3 mps 729 mmHg 99%
14:00 0°C° 0 mm 3 mps 729 mmHg 99%
15:00 +1°C° 0 mm 2 mps 729 mmHg 99%
16:00 +1°C° 0 mm 2 mps 729 mmHg 99%
17:00 +1°C° 0 mm 2 mps 729 mmHg 99%
18:00 +2°C° 0.3 mm 1 mps 729 mmHg 99%
19:00 +2°C° 0.3 mm 1 mps 729 mmHg 99%
20:00 +2°C° 0.3 mm 1 mps 729 mmHg 99%
21:00 +2°C° 0.8 mm 1 mps 728 mmHg 99%
22:00 +2°C° 0.8 mm 1 mps 728 mmHg 99%
23:00 +2°C° 0.8 mm 1 mps 728 mmHg 99%
Show more